Regional Weather Roundup
Issued by NWS

Home | Current Version | Previous Version | Text Only | Print | Product List | Glossary On
Versions: 1 2 3 4 5 6 7 8 9 10 11 12 13 14 15 16 17 18 19 20 21 22 23 24 25 26 27 28 29 30 31 32 33 34 35 36 37 38 39 40 41 42 43 44 45 46 47
614
ASCA42 TJSJ 090410
RWRPR
PUERTO RICO/U.S. VIRGIN ISLANDS HOURLY WEATHER ROUNDUP
NATIONAL WEATHER SERVICE SAN JUAN PR
1200 AM AST TUE FEB 09 2016

PRZ001-004-090500-
PUERTO RICO

CITY           SKY/WX    TMP DP  RH WIND       PRES   REMARKS
SAN JUAN LMM   CLEAR     77  68  73 CALM      30.06S
PONCE          PTCLDY    73  68  83 NE6       30.03
CEIBA          CLEAR     75  72  88 CALM      30.08S
$$

PRZ006-007-090500-
U.S. VIRGIN ISLANDS

CITY           SKY/WX    TMP DP  RH WIND       PRES   REMARKS
CHARLOTTE AMA  CLEAR     75  72  88 E6        30.05F
CHRISTIANSTED  CLEAR     75  70  83 N5        30.05F
$$

HOURLY WEATHER ROUNDUP FOR THE NEWS MEDIA

CITY           SKY/WX    TMP DP  RH WIND       PRES   REMARKS
ORLANDO        PTCLDY    60  50  69 SW14      29.85F
NEW YORK       FLURRIES  29  24  82 E9        29.80F WCI  20
NEWARK         LGT SNOW  30  25  81 NE7       29.77F WCI  23
CHICAGO        LGT SNOW  23  19  85 W13       29.74S FOG     WCI  11
HARTFORD       LGT SNOW  21  18  88 N8        29.75S FOG     WCI  11
BOSTON         LGT SNOW  21  16  81 N12       29.80S WCI   9
DALLAS         CLEAR     45   9  23 NW9       30.27S
PHILADELPHIA   LGT SNOW  32  28  85 E7        29.74  FOG     WCI  26
LOS ANGELES    CLEAR     73  30  20 CALM      30.10R
WASHINGTON DC  CLOUDY    38  32  79 SE12      29.65F WCI  30



USA.gov is the U.S. government's official web portal to all federal, state and local government web resources and services.